Wind_Speed
2 2 2 4 5 7 6 5 4 2 2 11 8 7 8 10 10 9 8 8 7 7 7 7 6 4 4 3 3 3 3 4 5 5 4 4 3 2 2 5 10 11 11 9
3 1 3 4 7 8 8 9 9 7 7 5 8 9 9 10 11 9 9 11 10 9 8 7 8 5 4 4 4 4 4 5 4 4 4 5 6 8 10 13 13 12 11 11
1 2 4 6 12 13 7 7 10 9 8 3 4 5 4 4 8 9 11 11 9 9 9 9 7 4 4 6 5 4 3 1 2 3 6 8 10 11 13 14 13 14 13 12
2 2 1 5 3 3 14 9 9 6 8 5 5 6 6 7 8 9 9 10 10 9 8 6 4 4 6 5 4 2 1 3 4 6 9 11 12 13 14 13 13 13 13 12
2 4 6 6 4 3 6 9 12 12 7 10 4 4 5 9 9 8 7 6 7 10 9 8 8 6 6 5 2 3 6 8 10 11 12 13 14 15 15 13 13 13 12 10
2 1 3 3 4 1 2 2 4 13 7 6 10 2 2 14 8 5 6 7 8 10 12 10 7 7 7 5 5 8 10 11 12 12 14 14 14 14 13 10 10 10 9 9
4 2 5 5 7 2 2 3 7 6 2 5 4 3 9 11 7 5 6 8 9 8 8 8 9 8 7 6 9 11 11 12 14 14 13 12 12 12 10 9 9 8 7 7
4 3 7 8 2 1 3 9 6 3 2 3 4 7 9 9 9 8 7 7 8 8 9 8 7 7 9 10 13 14 14 13 13 12 11 10 9 8 8 6 5 5 5 6
6 4 4 8 5 6 5 5 3 6 3 3 5 8 10 12 11 9 7 6 7 9 10 9 8 9 11 14 16 14 13 11 10 10 9 7 6 5 4 3 3 3 5 7
3 5 7 8 9 6 5 4 4 3 0 2 5 6 11 12 13 11 10 8 10 11 12 10 11 13 14 15 14 14 12 11 9 8 7 5 4 2 1 1 2 4 6 7
5 7 5 5 11 15 9 5 3 1 3 4 5 8 9 11 14 14 12 11 11 10 12 13 15 16 16 15 14 13 12 11 9 7 6 4 2 2 1 3 5 6 7 8
4 4 3 4 12 12 9 6 6 6 6 7 7 7 10 11 12 15 14 13 13 12 13 17 18 18 17 16 15 14 12 10 8 7 6 5 4 4 3 4 5 7 8 9
0 3 5 5 4 5 4 6 8 8 8 8 9 8 10 11 13 14 16 15 16 14 13 17 18 18 18 17 17 15 13 11 9 9 8 7 6 6 5 6 7 7 8 9
10 9 5 7 4 8 7 7 8 8 8 8 9 9 9 13 15 15 17 16 16 16 16 17 19 19 19 18 17 15 14 12 11 11 10 9 9 8 8 8 9 9 9 11
11 9 7 7 7 7 9 9 9 9 8 9 9 10 11 13 18 18 15 18 19 19 19 19 19 19 19 19 18 17 16 14 13 12 12 11 10 9 9 10 10 10 12 13
12 13 8 8 7 9 11 11 12 12 11 11 13 12 11 13 16 19 18 20 23 25 23 22 20 19 19 20 19 19 17 16 15 14 13 12 11 11 11 11 11 11 12 14
10 7 7 8 8 8 9 11 12 14 15 15 15 14 14 12 15 19 20 20 21 23 24 24 23 19 19 20 20 19 18 17 17 16 15 14 13 13 13 13 13 13 13 14
8 7 6 8 9 10 10 11 12 13 15 16 16 15 17 16 15 17 19 18 20 24 26 25 25 24 22 22 21 21 20 19 18 17 16 16 15 15 15 14 14 14 15 15
7 8 8 6 7 9 9 10 11 12 13 14 15 16 15 16 15 16 16 18 21 24 26 27 28 27 24 24 23 22 22 21 20 19 18 18 18 17 16 16 15 16 16 17
1 0 2 3 4 5 5 7 9 8 8 9 10 11 12 13 13 14 15 17 18 20 20 23 28 29 28 27 27 24 22 23 22 21 20 20 19 18 17 17 17 17 17 18
5 5 5 4 3 3 4 6 7 7 6 6 6 6 8 10 11 13 14 16 15 17 18 20 23 27 30 31 31 29 27 26 25 23 22 22 20 20 18 17 17 17 18 19
3 2 3 3 3 3 5 6 7 7 7 6 6 6 8 9 10 12 14 16 15 17 17 19 20 21 23 27 31 34 32 28 25 24 24 23 22 21 19 18 18 18 18 19
2 2 4 4 4 5 6 7 8 7 7 7 7 7 8 8 9 11 10 11 11 13 14 15 15 16 18 24 27 30 33 31 28 25 25 24 23 21 20 19 18 18 18 20
1 3 5 6 6 6 6 7 8 8 8 7 7 8 8 8 8 9 10 12 12 14 14 14 14 14 17 21 24 27 29 29 27 24 24 24 24 23 21 19 18 16 19 21
3 5 6 5 5 6 7 8 8 8 8 9 9 8 8 8 9 9 10 11 12 12 13 13 12 14 18 22 24 26 27 28 24 24 25 25 25 24 21 19 19 16 21 22
6 7 8 7 7 7 8 9 9 10 10 9 9 9 9 9 9 10 10 10 10 11 11 12 13 16 19 22 24 25 25 25 26 28 27 21 25 24 21 19 19 18 24 22
8 9 7 7 6 7 9 10 10 10 11 11 11 11 10 9 9 10 10 10 11 11 11 11 12 14 16 19 22 22 22 25 26 26 24 22 24 23 22 19 21 20 23 21
Wind_Direction
32 76 143 195 210 202 170 217 164 344 208 195 171 190 211 131 159 178 199 208 217 203 194 218 235 249 264 289 297 304 319 328 332 340 352 357 16 34 12 20 24 23 16 13
299 141 279 260 249 221 203 217 260 275 287 300 285 128 134 186 186 205 211 226 228 219 208 216 233 242 251 272 275 282 294 324 345 1 45 61 71 74 67 60 51 47 46 47
253 187 293 286 225 212 195 191 200 214 217 312 116 146 139 164 196 208 212 217 209 205 202 219 236 237 255 265 274 272 285 328 45 67 81 88 88 82 77 74 75 74 69 67
226 179 293 221 74 204 205 201 211 216 226 220 166 169 207 209 199 203 209 214 204 202 220 224 228 233 252 263 260 259 171 118 111 106 101 99 98 89 84 82 79 75 71 68
188 211 274 151 178 174 158 234 212 209 246 275 149 138 220 210 194 201 221 208 196 194 213 205 214 226 248 260 214 162 134 123 120 113 109 106 102 96 91 86 84 80 76 73
72 264 256 110 150 64 164 164 22 187 219 197 134 179 204 195 199 205 206 214 224 222 209 213 209 212 231 228 179 153 142 135 128 121 115 111 103 99 94 89 85 80 83 74
229 253 296 138 129 125 214 136 91 83 117 169 157 200 164 186 189 205 199 194 204 218 205 212 214 222 222 184 163 149 145 139 128 122 116 111 107 102 95 87 76 66 52 36
202 196 260 132 104 192 124 110 90 74 154 192 184 183 185 192 199 205 209 206 204 203 202 216 220 201 175 164 155 144 141 138 134 128 121 118 115 108 93 76 57 37 23 12
189 217 149 180 116 121 144 123 96 102 136 163 216 229 226 217 215 217 219 205 201 212 210 208 200 181 173 161 149 148 146 146 144 138 135 129 124 115 101 65 19 359 346 344
143 257 205 186 186 174 185 178 131 87 228 245 233 248 224 221 220 222 227 218 214 211 203 200 185 172 165 160 154 154 159 163 161 157 152 151 151 159 186 331 330 331 335 336
251 284 262 208 216 209 190 179 194 219 331 281 255 247 260 239 230 227 225 219 216 207 204 195 183 174 173 173 171 172 177 180 179 178 182 188 203 238 301 323 328 332 333 329
216 51 91 105 140 168 190 210 249 266 278 297 275 238 251 253 241 230 226 220 213 213 207 196 189 185 185 184 187 189 189 193 195 200 207 213 232 262 292 304 316 323 322 326
152 92 121 158 199 190 215 250 267 270 269 270 267 249 234 247 252 239 228 225 221 222 211 202 200 197 193 194 198 201 202 205 210 216 225 238 260 271 276 296 308 316 325 332
259 249 247 238 221 234 249 263 277 281 275 263 254 253 240 236 246 246 236 232 228 224 221 215 211 206 201 201 206 212 214 216 220 227 234 243 253 268 284 297 306 313 326 330
218 228 216 193 217 259 272 279 284 286 284 276 264 258 251 240 242 254 247 232 226 227 224 220 219 215 210 208 212 217 222 226 231 236 241 248 258 270 277 285 296 308 318 325
221 234 237 243 253 265 275 280 284 286 282 272 271 271 266 254 243 252 252 238 227 225 227 226 225 223 220 217 217 220 225 229 236 242 247 252 260 269 277 284 293 304 313 320
208 218 233 257 274 279 274 270 269 273 275 270 269 269 265 261 247 246 250 246 238 235 236 235 233 229 228 227 228 227 231 236 240 245 251 256 262 270 277 283 290 298 309 316
224 237 255 260 269 277 280 279 282 281 280 279 275 268 257 257 260 252 254 254 241 236 234 235 235 234 230 230 230 233 236 239 244 249 254 258 264 269 275 281 287 295 305 312
238 246 260 276 278 282 287 292 296 291 287 281 270 267 261 255 258 257 255 251 244 242 240 234 236 236 232 231 235 235 239 242 246 250 254 257 261 267 274 281 288 294 302 309
121 238 274 278 286 291 295 303 315 305 299 295 274 264 257 253 256 258 259 257 258 256 253 245 244 242 237 232 229 237 241 246 248 251 254 258 262 267 273 279 287 293 300 306
78 62 54 47 35 13 0 345 339 335 322 319 301 273 264 259 259 259 257 259 261 261 257 249 244 244 240 237 232 228 234 242 247 251 257 260 263 267 272 279 286 293 299 304
119 90 49 34 18 353 343 346 346 341 332 332 320 300 285 277 272 269 265 266 265 260 259 257 255 252 248 243 239 236 231 233 244 250 257 260 263 267 273 277 284 292 297 304
101 44 18 7 355 342 334 335 335 334 336 334 324 311 304 299 288 281 278 272 271 272 267 262 260 253 245 240 240 241 243 240 235 244 255 261 264 267 270 273 279 289 299 306
27 350 343 340 336 335 335 335 334 331 330 326 322 319 315 308 300 295 290 282 276 272 271 262 249 245 245 243 243 243 244 241 240 246 255 261 262 263 265 270 276 286 298 300
309 321 325 321 321 326 329 331 331 329 326 320 317 316 316 316 313 308 301 295 290 288 281 275 271 257 246 246 245 242 240 242 238 250 252 253 264 264 266 269 274 286 292 298
295 308 310 310 317 325 332 336 337 336 336 335 331 320 313 309 309 310 310 307 300 293 286 280 272 264 259 259 259 255 250 250 243 242 250 252 262 262 263 266 272 279 289 296
287 296 293 296 308 320 328 330 330 330 331 333 337 334 330 316 311 311 309 307 306 303 298 288 276 270 269 265 262 261 258 253 250 250 248 254 260 261 261 265 272 275 284 295
Height
1466 1467 1467 1471 1470 1471 1485 1479 1490 1472 1464 1464 1465 1468 1469 1472 1474 1476 1478 1480 1481 1482 1481 1482 1482 1480 1480 1479 1479 1477 1476 1475 1474 1471 1469 1469 1469 1467 1466 1465 1463 1461 1460 1460
1482 1467 1468 1473 1468 1468 1471 1475 1476 1473 1471 1462 1463 1464 1468 1471 1473 1474 1476 1477 1478 1479 1480 1479 1479 1478 1478 1477 1476 1475 1474 1473 1471 1469 1468 1467 1468 1467 1465 1463 1463 1463 1461 1461
1474 1468 1469 1478 1462 1462 1463 1464 1468 1474 1464 1461 1462 1464 1467 1470 1471 1473 1474 1475 1476 1476 1477 1476 1476 1475 1474 1475 1475 1473 1473 1471 1470 1469 1468 1469 1468 1468 1465 1465 1465 1465 1464 1464
1480 1472 1489 1453 1449 1450 1455 1457 1459 1459 1459 1458 1460 1463 1465 1467 1468 1469 1470 1472 1472 1473 1472 1472 1472 1473 1473 1473 1472 1471 1471 1470 1470 1471 1470 1470 1470 1468 1467 1468 1468 1467 1468 1468
1478 1468 1453 1452 1451 1451 1453 1454 1452 1456 1457 1457 1460 1461 1463 1464 1465 1466 1466 1467 1468 1468 1469 1470 1473 1472 1471 1470 1470 1471 1470 1471 1472 1472 1471 1471 1470 1470 1470 1470 1471 1470 1470 1471
1469 1471 1460 1446 1447 1447 1447 1450 1446 1449 1454 1455 1457 1464 1459 1460 1462 1463 1463 1463 1464 1466 1468 1470 1470 1470 1469 1469 1469 1470 1471 1472 1473 1472 1472 1472 1472 1472 1472 1473 1474 1473 1473 1473
1468 1463 1457 1445 1445 1447 1453 1456 1449 1450 1452 1453 1456 1458 1458 1459 1461 1462 1462 1463 1464 1465 1466 1467 1467 1467 1468 1468 1470 1471 1472 1473 1473 1473 1474 1474 1474 1474 1475 1475 1475 1475 1474 1474
1461 1465 1468 1444 1447 1448 1449 1448 1450 1451 1452 1453 1454 1455 1457 1458 1459 1460 1460 1461 1462 1462 1463 1464 1465 1466 1466 1468 1470 1471 1473 1474 1474 1474 1475 1476 1475 1476 1476 1476 1476 1475 1474 1474
1452 1454 1443 1442 1444 1445 1446 1447 1448 1449 1450 1451 1452 1453 1454 1456 1457 1457 1458 1458 1459 1460 1462 1463 1464 1465 1466 1468 1470 1472 1474 1475 1475 1475 1476 1476 1476 1476 1476 1476 1475 1475 1474 1473
1445 1438 1440 1441 1443 1444 1445 1445 1446 1447 1449 1450 1451 1452 1452 1453 1453 1454 1455 1456 1458 1459 1460 1461 1462 1464 1466 1468 1470 1472 1474 1475 1476 1476 1476 1476 1477 1477 1476 1476 1475 1475 1474 1473
1441 1438 1437 1438 1439 1441 1443 1445 1446 1446 1448 1448 1449 1449 1449 1449 1451 1452 1454 1455 1456 1457 1458 1459 1461 1463 1465 1468 1470 1471 1473 1474 1475 1476 1476 1476 1476 1476 1476 1476 1475 1474 1473 1472
1439 1434 1434 1438 1437 1439 1442 1443 1444 1444 1445 1445 1446 1446 1447 1447 1448 1450 1451 1453 1454 1455 1456 1458 1459 1462 1463 1465 1468 1470 1471 1473 1474 1475 1475 1475 1475 1475 1475 1475 1475 1474 1472 1471
1433 1434 1434 1436 1438 1439 1440 1441 1441 1441 1441 1442 1443 1444 1445 1445 1446 1447 1448 1450 1451 1452 1454 1456 1457 1459 1461 1464 1466 1467 1469 1470 1472 1473 1473 1474 1474 1474 1474 1474 1473 1472 1471 1469
1431 1432 1433 1434 1436 1437 1438 1438 1438 1438 1438 1439 1440 1441 1442 1442 1442 1443 1444 1447 1449 1450 1451 1453 1455 1457 1459 1461 1464 1466 1467 1468 1469 1470 1471 1472 1472 1472 1472 1471 1471 1470 1469 1467
1429 1431 1430 1431 1433 1434 1435 1435 1435 1435 1436 1436 1436 1437 1438 1438 1439 1439 1441 1443 1445 1446 1447 1449 1451 1454 1456 1458 1460 1463 1465 1466 1467 1468 1469 1470 1470 1470 1470 1469 1469 1467 1465 1464
1427 1427 1428 1429 1430 1431 1432 1432 1432 1432 1433 1433 1433 1433 1434 1435 1435 1436 1437 1438 1439 1440 1443 1445 1447 1450 1453 1455 1457 1459 1461 1463 1464 1465 1466 1466 1467 1467 1467 1467 1466 1465 1463 1461
1424 1424 1424 1426 1427 1428 1428 1429 1428 1428 1429 1429 1429 1430 1430 1431 1431 1432 1432 1434 1436 1438 1440 1442 1444 1446 1449 1452 1454 1456 1458 1459 1460 1461 1462 1463 1463 1464 1464 1463 1462 1461 1460 1458
1421 1422 1422 1423 1424 1424 1424 1424 1424 1424 1424 1424 1424 1425 1425 1426 1427 1428 1428 1430 1431 1432 1434 1437 1440 1442 1445 1447 1449 1451 1453 1455 1456 1457 1458 1459 1460 1460 1460 1459 1458 1457 1456 1454
1418 1419 1419 1420 1421 1421 1421 1421 1421 1420 1419 1419 1419 1419 1420 1421 1422 1423 1424 1425 1426 1427 1429 1432 1434 1437 1439 1442 1444 1446 1448 1450 1451 1452 1453 1454 1455 1455 1455 1455 1454 1453 1452 1450
1417 1417 1418 1418 1419 1419 1418 1418 1417 1416 1416 1415 1415 1415 1415 1417 1418 1419 1419 1420 1422 1423 1425 1427 1428 1430 1432 1434 1437 1440 1443 1444 1445 1447 1448 1449 1449 1450 1450 1450 1450 1449 1447 1446
1417 1417 1418 1418 1418 1418 1418 1417 1416 1415 1414 1414 1413 1413 1413 1413 1414 1414 1414 1414 1417 1418 1419 1420 1421 1423 1425 1427 1429 1432 1436 1438 1439 1441 1443 1444 1445 1445 1445 1446 1445 1444 1443 1441
1419 1419 1419 1419 1418 1418 1418 1417 1416 1415 1414 1412 1411 1410 1410 1410 1410 1410 1411 1411 1412 1412 1413 1413 1414 1416 1418 1420 1422 1425 1427 1430 1433 1435 1437 1438 1439 1440 1440 1440 1440 1439 1438 1437
1419 1419 1419 1418 1418 1417 1416 1416 1414 1413 1412 1411 1410 1409 1408 1408 1407 1407 1407 1407 1407 1407 1407 1408 1409 1410 1412 1414 1416 1418 1421 1423 1425 1428 1431 1433 1434 1435 1435 1435 1435 1434 1432 1431
1418 1418 1418 1417 1417 1416 1415 1414 1413 1412 1410 1409 1408 1407 1406 1405 1405 1405 1404 1403 1403 1403 1403 1403 1404 1405 1407 1408 1409 1411 1414 1417 1419 1422 1425 1427 1427 1428 1429 1429 1429 1428 1427 1426
1418 1417 1417 1416 1416 1415 1414 1413 1412 1411 1410 1408 1407 1406 1405 1404 1403 1402 1401 1400 1400 1399 1399 1399 1399 1400 1402 1403 1404 1406 1408 1410 1412 1416 1418 1419 1421 1422 1423 1424 1424 1423 1422 1421
1416 1416 1415 1415 1414 1414 1413 1412 1411 1409 1408 1406 1405 1403 1402 1401 1401 1400 1399 1397 1397 1396 1396 1396 1396 1396 1396 1397 1398 1400 1401 1403 1405 1408 1410 1412 1415 1416 1417 1418 1418 1417 1416 1414
1414 1413 1413 1412 1412 1411 1411 1410 1409 1407 1406 1404 1403 1402 1400 1399 1398 1397 1396 1395 1394 1393 1392 1392 1392 1392 1392 1392 1393 1394 1395 1397 1399 1401 1403 1405 1408 1410 1411 1411 1411 1411 1410 1409